Weather History for Corinth, MS

Change the Weather History Date:

Friday, November 8, 2013

  Actual Average Record
Temperature  
Mean Temperature 46 °F -  
Max Temperature 60 °F 65 °F 79 °F (1980)
Min Temperature 32 °F 39 °F 19 °F (1993)
Degree Days  
Heating Degree Days 19    
Moisture  
Dew Point 34 °F    
Average Humidity 74    
Maximum Humidity 100    
Minimum Humidity 34    
Precipitation  
Precipitation 0.00 in - - ()
Sea Level Pressure  
Sea Level Pressure 30.32 in    
Wind  
Wind Speed 1 mph (ESE)    
Max Wind Speed 9 mph    
Max Gust Speed -    
Visibility 10 miles    
Events      
Averages and records for this station are not official NWS values.
T = Trace of Precipitation, MM = Missing Value Source: NWS Daily Summary

Daily Weather History Graph

Daily Weather History Graph

Search for Another Location

Airport:

Trip Planner

Search our weather history database for the weather conditions in past years. The results will help you decide how hot, cold, wet, or windy it might be!

Date:

Astronomy

Nov. 08, 2013 Rise Set
Actual Time 6:22 AM CST 4:53 PM CST
Civil Twilight 5:55 AM CST 5:20 PM CST
Nautical Twilight 5:25 AM CST 5:50 PM CST
Astronomical Twilight 4:55 AM CST 6:20 PM CST
Moon 11:17 AM CST (11/8) 10:13 PM CST (11/8)
Length of Visible Light 11h 24m
Length of Day
10h 31m
Waxing Crescent, 33% of the Moon is Illuminated
Nov 8
Waxing Crescent
Nov 9
First Quarter
Nov 17
Full
Nov 25
Last Quarter
Dec 2
New

Hourly Weather History & Observations

Time (CST) Temp. Windchill Dew Point Humidity Pressure Visibility Wind Dir Wind Speed Gust Speed Precip Events Conditions
12:10 AM 33.8 °F - 32.0 °F 93% 30.34 in 10.0 mi Calm Calm - N/A   Clear
12:30 AM 33.8 °F - 32.0 °F 93% 30.34 in 10.0 mi Calm Calm - N/A   Clear
12:50 AM 33.8 °F - 32.0 °F 93% 30.34 in 8.0 mi Calm Calm - N/A   Clear
1:10 AM 32.0 °F - 32.0 °F 100% 30.34 in 10.0 mi Calm Calm - N/A   Clear
1:30 AM 32.0 °F - 32.0 °F 100% 30.35 in 8.0 mi Calm Calm - N/A   Clear
1:50 AM 32.0 °F - 32.0 °F 100% 30.35 in 10.0 mi Calm Calm - N/A   Clear
2:10 AM 32.0 °F - 32.0 °F 100% 30.35 in 10.0 mi Calm Calm - N/A   Clear
2:30 AM 32.0 °F 28.7 °F 32.0 °F 100% 30.35 in 9.0 mi WNW 3.5 mph - N/A   Clear
2:50 AM 32.0 °F - 32.0 °F 100% 30.35 in 9.0 mi Calm Calm - N/A   Clear
3:10 AM 32.0 °F - 32.0 °F 100% 30.35 in 10.0 mi Calm Calm - N/A   Clear
3:30 AM 32.0 °F - 32.0 °F 100% 30.35 in 8.0 mi Calm Calm - N/A   Clear
3:50 AM 32.0 °F - 32.0 °F 100% 30.35 in 10.0 mi Calm Calm - N/A   Clear
4:10 AM 32.0 °F - 32.0 °F 100% 30.35 in 10.0 mi Calm Calm - N/A   Clear
4:30 AM 32.0 °F - 30.2 °F 93% 30.36 in 8.0 mi Calm Calm - N/A   Clear
4:50 AM 32.0 °F - 30.2 °F 93% 30.36 in 10.0 mi Calm Calm - N/A   Clear
5:10 AM 32.0 °F - 30.2 °F 93% 30.36 in 10.0 mi Calm Calm - N/A   Clear
5:30 AM 32.0 °F - 30.2 °F 93% 30.36 in 10.0 mi Calm Calm - N/A   Clear
5:50 AM 32.0 °F - 30.2 °F 93% 30.37 in 10.0 mi Calm Calm - N/A   Clear
6:10 AM 32.0 °F - 28.4 °F 87% 30.38 in 9.0 mi Calm Calm - N/A   Clear
6:30 AM 32.0 °F - 28.4 °F 87% 30.38 in 8.0 mi Calm Calm - N/A   Clear
6:50 AM 32.0 °F - 30.2 °F 93% 30.39 in 9.0 mi Calm Calm - N/A   Clear
7:10 AM 32.0 °F - 30.2 °F 93% 30.39 in 10.0 mi Calm Calm - N/A   Clear
7:30 AM 32.0 °F - 32.0 °F 100% 30.40 in 10.0 mi Calm Calm - N/A   Clear
7:50 AM 35.6 °F - 32.0 °F 87% 30.40 in 10.0 mi Calm Calm - N/A   Clear
8:10 AM 37.4 °F - 35.6 °F 93% 30.40 in 10.0 mi Calm Calm - N/A   Clear
8:30 AM 41.0 °F - 35.6 °F 81% 30.40 in 10.0 mi Calm Calm - N/A   Clear
8:50 AM 44.6 °F - 37.4 °F 76% 30.40 in 10.0 mi Calm Calm - N/A   Clear
9:10 AM 46.4 °F - 37.4 °F 71% 30.40 in 10.0 mi Calm Calm - N/A   Clear
9:30 AM 48.2 °F - 37.4 °F 66% 30.40 in 10.0 mi Calm Calm - N/A   Clear
9:50 AM 50.0 °F - 37.4 °F 62% 30.40 in 10.0 mi SE 3.5 mph - N/A   Clear
10:10 AM 53.6 °F - 37.4 °F 54% 30.40 in 10.0 mi East 3.5 mph - N/A   Clear
10:30 AM 55.4 °F - 35.6 °F 47% 30.39 in 10.0 mi East 5.8 mph - N/A   Clear
10:50 AM 55.4 °F - 35.6 °F 47% 30.39 in 9.0 mi Calm Calm - N/A   Clear
11:10 AM 55.4 °F - 35.6 °F 47% 30.38 in 10.0 mi ENE 5.8 mph - N/A   Clear
11:30 AM 55.4 °F - 35.6 °F 47% 30.37 in 10.0 mi ESE 4.6 mph - N/A   Clear
11:50 AM 57.2 °F - 35.6 °F 44% 30.36 in 10.0 mi East 9.2 mph - N/A   Clear
12:10 PM 57.2 °F - 33.8 °F 41% 30.34 in 10.0 mi ESE 4.6 mph - N/A   Clear
12:30 PM 59.0 °F - 33.8 °F 39% 30.33 in 10.0 mi NE 6.9 mph - N/A   Clear
12:50 PM 57.2 °F - 32.0 °F 38% 30.32 in 10.0 mi East 4.6 mph - N/A   Clear
1:10 PM 59.0 °F - 32.0 °F 36% 30.32 in 10.0 mi NE 4.6 mph - N/A   Clear
1:30 PM 59.0 °F - 32.0 °F 36% 30.31 in 10.0 mi East 5.8 mph - N/A   Clear
1:50 PM 59.0 °F - 32.0 °F 36% 30.30 in 10.0 mi SSE 5.8 mph - N/A   Clear
2:10 PM 59.0 °F - 32.0 °F 36% 30.30 in 10.0 mi WSW 4.6 mph - N/A   Clear
2:30 PM 60.8 °F - 32.0 °F 34% 30.29 in 10.0 mi South 4.6 mph - N/A   Clear
2:50 PM 60.8 °F - 32.0 °F 34% 30.29 in 10.0 mi Calm Calm - N/A   Clear
3:10 PM 59.0 °F - 32.0 °F 36% 30.28 in 10.0 mi SE 3.5 mph - N/A   Clear
3:30 PM 59.0 °F - 32.0 °F 36% 30.28 in 10.0 mi Calm Calm - N/A   Clear
3:50 PM 59.0 °F - 32.0 °F 36% 30.27 in 10.0 mi Calm Calm - N/A   Clear
4:10 PM 59.0 °F - 32.0 °F 36% 30.27 in 10.0 mi Calm Calm - N/A   Clear
4:30 PM 57.2 °F - 32.0 °F 38% 30.27 in 10.0 mi Calm Calm - N/A   Clear
4:50 PM 55.4 °F - 33.8 °F 44% 30.26 in 10.0 mi Calm Calm - N/A   Clear
5:10 PM 50.0 °F - 37.4 °F 62% 30.26 in 10.0 mi SSE 3.5 mph - N/A   Clear
5:30 PM 48.2 °F - 37.4 °F 66% 30.26 in 10.0 mi South 3.5 mph - N/A   Clear
5:50 PM 48.2 °F - 37.4 °F 66% 30.26 in 10.0 mi Calm Calm - N/A   Clear
6:10 PM 46.4 °F - 39.2 °F 76% 30.26 in 10.0 mi Calm Calm - N/A   Clear
6:30 PM 44.6 °F - 37.4 °F 76% 30.26 in 10.0 mi Calm Calm - N/A   Clear
6:50 PM 44.6 °F - 37.4 °F 76% 30.26 in 10.0 mi Calm Calm - N/A   Clear
7:10 PM 42.8 °F - 37.4 °F 81% 30.25 in 10.0 mi Calm Calm - N/A   Clear
7:30 PM 41.0 °F - 37.4 °F 87% 30.26 in 10.0 mi Calm Calm - N/A   Clear
7:50 PM 41.0 °F - 37.4 °F 87% 30.26 in 10.0 mi Calm Calm - N/A   Clear
8:10 PM 39.2 °F - 37.4 °F 93% 30.26 in 10.0 mi Calm Calm - N/A   Clear
8:30 PM 41.0 °F - 37.4 °F 87% 30.26 in 5.0 mi Calm Calm - N/A   Clear
8:50 PM 39.2 °F - 37.4 °F 93% 30.26 in 8.0 mi Calm Calm - N/A   Clear
9:10 PM 39.2 °F - 37.4 °F 93% 30.25 in 10.0 mi Calm Calm - N/A   Clear
9:30 PM 41.0 °F - 37.4 °F 87% 30.25 in 4.0 mi Calm Calm - N/A   Clear
9:50 PM 39.2 °F - 37.4 °F 93% 30.24 in 10.0 mi Calm Calm - N/A   Clear
10:10 PM 41.0 °F 39.0 °F 37.4 °F 87% 30.24 in 10.0 mi SSE 3.5 mph - N/A   Clear
10:30 PM 39.2 °F - 37.4 °F 93% 30.24 in 10.0 mi Calm Calm - N/A   Clear
10:50 PM 41.0 °F 39.0 °F 37.4 °F 87% 30.25 in 10.0 mi NNW 3.5 mph - N/A   Clear
11:10 PM 41.0 °F - 39.2 °F 93% 30.25 in 10.0 mi Calm Calm - N/A   Clear
11:30 PM 41.0 °F - 39.2 °F 93% 30.24 in 10.0 mi Calm Calm - N/A   Clear
11:50 PM 41.0 °F - 37.4 °F 87% 30.23 in 10.0 mi Calm Calm - N/A   Clear